GFSNGP_con_lsi_096.txt.gz
Lid_Strength_Index
13 12 13 13 13 13 14 13 15 14 14 12 11 10 9 9 9 9 9 9 9 9 10 11 12 12 12 12 12 12 12 12 12 12 13 13 14 15 15 15 14 15 15 14
16 13 14 15 13 13 13 13 13 13 14 11 10 9 10 9 9 9 9 9 9 10 11 11 12 13 12 13 12 12 13 13 13 14 15 15 15 15 15 15 15 15 15 15
17 15 15 17 15 14 13 12 13 15 12 11 11 10 10 10 9 9 9 10 10 10 10 11 11 11 12 12 12 13 14 15 15 16 16 16 16 16 16 16 16 16 16 16
17 16 20 15 13 12 13 12 12 12 12 12 11 10 9 8 9 9 9 9 9 10 11 11 11 12 12 12 13 14 15 16 16 16 17 16 17 17 17 16 17 17 16 16
17 20 16 14 15 14 14 14 11 11 11 11 11 11 11 8 8 8 8 8 9 10 10 11 12 13 14 15 15 15 16 16 16 17 18 18 19 18 17 18 17 18 16 17
15 18 20 16 12 11 11 16 12 11 11 12 11 13 12 9 8 8 8 9 10 11 12 13 13 14 15 15 16 16 16 16 16 17 19 20 18 19 18 18 15 15 14 13
16 17 17 15 14 11 17 15 15 12 11 11 11 10 10 10 10 9 10 11 11 12 13 14 14 15 15 16 16 16 17 17 18 18 20 20 19 18 19 19 17 19 16 15
15 17 18 15 15 14 13 15 15 13 11 12 12 11 10 10 11 11 12 12 13 14 15 15 15 15 16 16 17 18 19 19 21 23 20 19 23 22 22 21 21 19 18 16
13 15 14 14 15 13 12 13 15 14 13 11 12 13 12 12 12 12 12 13 14 15 16 16 16 15 17 18 18 20 22 25 25 24 22 22 24 23 22 22 21 18 17 15
14 14 14 14 14 14 13 13 13 13 13 12 13 13 13 13 13 14 14 15 15 15 16 17 17 17 18 20 21 25 26 25 23 24 24 23 20 19 23 22 19 18 16 15
16 14 14 13 13 12 13 14 13 13 13 12 13 13 13 13 14 14 14 15 14 15 16 17 18 20 21 22 23 23 25 23 24 22 24 22 20 20 19 18 18 17 14 13
15 12 12 12 12 12 13 14 14 14 14 14 14 13 13 14 14 14 15 16 16 17 17 19 21 22 24 25 25 27 25 23 23 23 23 21 20 19 15 13 12 12 11 12
13 12 12 13 12 12 13 13 13 14 14 14 14 14 14 15 17 17 17 17 17 18 20 22 24 25 27 27 27 27 26 25 24 22 23 23 23 21 20 17 14 13 12 12
13 13 14 13 13 12 12 13 15 16 17 15 16 16 15 16 18 17 17 19 20 21 22 23 24 25 27 28 28 30 30 25 27 26 26 25 24 24 22 21 20 18 15 13
12 12 12 13 13 14 15 15 16 16 17 18 18 17 16 17 18 18 21 23 23 24 25 26 27 28 29 30 29 30 28 27 27 27 26 25 24 22 21 20 19 18 17 15
12 14 15 16 15 16 17 18 17 16 17 18 17 18 18 18 19 22 24 24 22 23 25 27 28 28 30 31 31 31 30 26 26 28 28 27 24 22 21 20 19 19 17 16
15 15 17 16 14 14 14 14 13 14 15 17 16 18 19 21 23 24 26 27 27 27 27 27 28 31 32 31 31 30 30 29 26 28 28 26 26 24 21 20 19 18 17 14
9 9 11 11 11 12 13 13 14 15 14 14 18 18 21 20 18 21 25 29 30 32 31 30 29 32 33 33 32 30 30 29 29 29 27 26 24 23 21 19 18 17 16 16
13 10 11 11 11 11 11 12 13 12 15 16 17 17 17 19 21 24 26 28 29 29 28 29 23 28 29 29 29 29 28 28 28 28 27 25 25 25 22 22 20 22 18 19
16 16 16 16 17 16 15 17 15 14 15 16 16 19 20 22 23 25 25 26 27 26 27 28 28 28 29 30 24 29 29 28 28 28 28 27 27 26 24 23 24 23 23 23
22 21 20 20 18 21 21 20 16 16 19 17 17 17 18 24 25 26 27 25 29 30 28 27 28 29 30 29 29 30 29 29 28 28 29 28 28 28 26 27 27 24 25 24
25 25 23 23 24 23 26 24 23 23 21 24 25 24 25 28 28 30 32 26 27 27 28 29 29 28 28 26 29 29 29 29 29 29 29 29 29 28 28 27 26 26 26 25
25 26 25 26 28 28 30 29 29 28 26 24 24 24 22 25 25 26 26 29 27 26 27 27 25 24 23 27 28 29 30 29 29 29 29 29 28 29 28 26 26 26 25 25
28 29 30 30 30 30 30 31 31 30 29 27 25 24 23 24 25 25 24 24 25 22 24 24 22 20 22 24 25 27 29 30 30 31 30 26 29 28 27 27 25 26 25 24
31 31 32 31 30 30 32 33 31 29 28 28 27 25 25 23 22 24 24 24 22 23 24 22 21 21 24 25 27 27 29 31 31 32 31 30 28 28 28 27 26 25 25 25
32 31 30 29 27 29 31 29 29 28 26 28 28 26 25 25 24 24 24 24 24 24 24 24 25 25 26 26 27 27 28 28 27 27 27 27 28 28 27 26 25 25 24 24
30 26 28 28 26 26 26 25 26 27 27 27 27 25 25 25 24 24 25 25 25 25 24 25 25 25 26 26 27 27 26 27 26 27 28 28 29 28 27 26 25 24 24 23

GFSNGP_con_lsi_102.txt.gz
Lid_Strength_Index
15 14 13 13 13 13 14 13 15 14 16 13 13 12 11 10 10 10 10 10 10 10 11 11 11 11 11 12 12 13 13 13 14 15 15 15 16 16 15 15 15 15 15 16
16 14 14 15 13 12 13 13 14 14 15 12 12 12 12 11 10 10 9 9 9 9 10 11 11 12 12 12 13 13 14 15 15 16 16 16 16 15 15 15 15 15 16 16
16 14 14 16 14 14 13 12 13 15 13 13 13 12 11 10 9 9 8 8 9 9 9 10 11 11 12 13 14 15 16 16 16 16 16 16 16 15 15 16 16 16 16 17
18 16 20 13 12 12 13 13 12 12 13 12 12 11 10 9 9 8 8 8 8 8 9 10 11 12 13 14 15 15 16 16 16 16 16 16 16 16 16 16 17 17 17 17
20 26 17 15 14 14 15 13 12 12 11 13 13 12 11 9 9 8 8 8 8 8 9 10 12 12 13 14 15 15 16 16 16 16 16 17 17 18 17 18 19 19 18 19
26 22 22 16 13 12 11 15 11 11 11 12 12 13 11 10 9 8 8 8 8 8 10 11 13 13 14 15 16 15 15 15 16 16 17 18 18 18 18 19 18 18 18 19
23 24 19 15 14 12 16 15 14 12 11 12 12 10 11 10 11 9 10 10 10 10 12 12 14 14 14 15 15 15 16 16 17 17 18 18 18 19 20 20 20 23 21 21
19 21 19 14 14 13 12 15 14 13 12 12 12 12 12 11 11 11 11 11 11 12 12 13 13 13 15 15 15 16 17 17 18 19 18 19 20 21 21 22 24 24 25 24
13 15 14 14 13 14 13 14 15 14 13 12 12 12 13 12 13 13 12 13 12 12 14 14 14 13 15 15 16 17 18 19 20 20 19 20 21 21 22 24 24 24 24 25
12 13 13 14 14 13 13 14 13 14 14 13 12 12 13 13 14 14 15 14 14 14 14 15 14 14 14 16 17 17 19 19 20 20 21 20 20 20 23 24 26 26 26 26
14 14 14 13 12 13 14 14 14 14 13 13 13 13 13 14 16 16 16 16 14 14 14 15 15 16 16 17 18 18 19 20 20 20 21 22 22 22 22 24 24 27 27 26
14 12 11 12 13 12 13 13 13 14 13 13 14 13 15 16 16 16 16 17 16 16 15 17 17 19 19 18 17 19 20 20 20 21 22 22 23 23 20 18 17 17 16 18
12 11 11 11 12 12 13 13 13 14 14 13 14 14 16 16 17 17 17 16 16 16 16 17 18 18 19 19 18 19 19 21 22 22 23 24 24 24 27 25 20 19 17 16
13 13 14 14 13 13 13 14 16 17 17 16 17 18 18 18 20 17 17 16 17 17 17 17 17 19 21 21 20 20 22 22 23 24 24 26 26 26 27 27 29 28 20 17
13 13 14 14 14 15 16 17 17 17 18 19 20 19 19 19 19 18 20 20 19 17 16 17 18 22 23 23 23 24 24 26 26 27 27 26 26 27 28 29 29 29 28 21
15 17 18 16 17 18 18 19 18 17 19 20 20 19 19 20 21 23 23 21 18 18 19 19 20 25 27 26 26 27 26 26 26 27 29 29 28 28 27 27 27 27 27 26
16 16 18 18 18 18 18 18 18 17 19 20 17 21 22 23 24 23 22 26 26 22 21 21 23 26 27 26 26 27 27 28 28 30 30 29 27 27 27 28 28 29 27 24
15 15 17 17 17 17 17 20 21 20 20 20 22 24 24 22 17 19 21 26 29 30 26 26 26 27 28 29 27 27 27 27 28 28 28 27 28 27 27 29 29 29 27 27
18 18 18 17 19 20 20 20 21 21 20 22 24 20 20 20 20 21 24 24 25 25 23 27 22 26 27 28 27 26 26 27 27 30 29 29 31 32 31 31 31 31 30 29
23 22 22 22 22 23 23 24 23 22 19 21 21 21 20 19 23 24 23 21 19 20 23 24 22 24 24 25 23 25 25 25 26 28 29 30 29 31 32 30 31 31 33 32
27 27 26 26 25 26 26 26 26 25 24 22 21 17 16 18 20 22 24 20 18 24 22 22 22 23 24 23 24 25 27 26 26 27 28 29 30 32 30 31 31 30 32 32
31 30 29 29 29 28 30 30 30 28 27 25 23 23 22 23 26 25 24 22 27 24 24 23 23 24 23 23 24 25 27 28 28 30 31 30 29 27 27 26 26 27 27 29
32 32 31 30 31 31 31 34 32 33 31 30 29 28 26 25 26 25 21 27 28 26 27 25 24 23 24 24 25 26 26 26 26 26 26 25 24 23 24 25 26 26 26 28
34 33 32 32 34 34 30 30 33 35 35 34 32 32 30 27 27 29 28 27 26 23 26 25 21 20 22 24 24 24 24 24 23 23 23 23 23 24 25 26 26 27 27 28
35 35 36 34 33 31 34 34 32 34 33 33 32 31 30 28 26 28 29 28 22 24 24 20 18 19 22 22 22 23 23 22 23 23 23 23 24 24 25 27 27 28 29 30
35 32 32 34 32 32 30 32 32 33 34 32 33 32 31 29 26 24 24 22 22 22 21 20 19 21 22 22 22 22 23 23 23 23 24 24 25 26 26 26 27 27 28 30
33 31 32 30 32 30 30 30 30 29 32 33 32 31 30 29 27 24 22 22 22 22 22 22 22 22 23 23 23 23 23 23 23 24 24 25 25 26 27 27 27 28 29 29

GFSNGP_con_lsi_105.txt.gz
Lid_Strength_Index
15 14 13 13 13 13 14 13 15 15 16 13 12 12 12 10 10 10 11 11 11 11 11 11 12 12 12 12 13 13 13 13 14 14 14 14 15 15 16 16 16 16 16 16
16 14 13 14 13 13 13 13 14 14 15 13 12 11 11 10 10 10 9 9 9 10 10 11 11 11 11 12 13 13 13 14 14 14 15 15 16 16 16 16 17 16 16 16
19 15 15 16 15 14 13 12 13 16 13 13 13 12 11 10 10 9 9 9 9 10 10 10 10 11 11 12 13 14 14 15 15 16 16 16 16 16 16 16 16 17 16 16
19 16 19 15 13 13 13 13 12 12 13 13 12 11 10 9 9 9 9 8 8 9 9 9 9 10 11 12 13 14 15 15 16 16 16 17 17 17 17 17 17 16 16 16
17 22 17 14 14 14 14 13 12 12 12 12 13 13 12 10 9 8 8 7 7 7 8 9 10 10 12 13 14 15 15 15 16 16 16 17 17 18 17 17 18 18 16 17
24 18 19 14 13 12 11 15 10 11 12 13 13 14 11 10 9 9 9 8 8 8 9 10 11 12 14 14 15 15 15 15 15 16 17 17 17 17 18 18 17 17 17 18
25 22 20 16 14 12 16 15 14 13 11 12 12 10 11 10 11 10 10 10 9 9 10 10 12 13 13 14 15 14 15 16 17 17 17 17 17 18 18 18 18 19 19 19
21 23 19 14 15 14 13 15 14 13 12 13 13 12 12 11 11 11 11 11 10 10 11 12 13 13 14 14 14 15 16 16 17 17 17 18 18 19 19 19 19 20 19 19
15 15 13 14 14 13 13 14 14 14 14 13 13 13 12 12 12 12 12 12 12 11 13 14 13 12 14 14 16 16 16 17 18 18 18 19 19 20 20 20 19 20 19 20
13 14 14 14 14 13 13 14 13 13 14 14 14 12 12 13 13 13 16 16 16 15 16 15 14 13 13 15 15 16 16 18 19 19 19 19 19 19 20 20 20 20 20 21
14 14 14 14 14 13 14 13 13 13 13 13 13 13 13 14 16 16 17 17 17 16 16 16 15 15 15 15 15 16 17 18 19 19 19 20 20 20 20 20 20 21 21 22
15 12 12 12 13 13 13 13 13 14 14 14 14 13 14 15 16 17 18 18 17 17 16 16 17 16 16 15 15 17 18 19 19 19 20 20 21 21 19 18 17 16 16 19
11 9 9 10 11 13 14 14 13 13 14 14 14 14 16 16 17 17 18 18 17 17 18 17 18 18 17 16 16 16 17 18 19 20 20 21 21 21 23 22 18 17 17 17
12 12 14 13 13 12 12 13 15 16 16 16 17 18 18 18 20 19 18 18 18 18 18 18 18 18 18 17 16 16 17 18 19 20 20 21 22 22 22 22 23 24 21 19
13 13 13 13 14 15 16 17 17 18 18 19 20 19 20 19 19 18 20 20 19 18 18 18 17 19 19 17 17 18 19 19 20 21 21 22 23 24 24 24 25 26 28 24
15 17 17 16 17 17 18 19 19 17 18 19 19 19 20 20 21 20 22 21 19 18 18 17 17 19 20 18 18 20 20 21 22 22 24 25 24 25 25 26 26 26 27 27
16 16 18 18 18 18 18 19 19 19 19 19 18 20 24 25 26 26 25 25 26 23 21 18 18 23 23 21 20 21 23 24 24 25 25 25 25 25 25 25 25 26 25 24
17 17 18 18 18 18 19 21 23 23 23 22 22 25 26 26 21 21 23 28 28 27 27 25 25 25 26 27 26 25 25 25 26 25 26 26 26 26 26 25 25 25 26 26
22 22 22 21 22 22 23 24 26 26 25 25 24 23 25 24 25 24 28 28 28 26 21 28 22 26 27 27 26 25 24 25 26 30 27 28 26 26 26 26 28 28 28 28
25 24 24 25 26 27 28 29 29 28 28 28 27 24 23 23 25 28 30 24 23 22 27 26 23 25 24 24 21 23 24 24 24 24 25 25 25 28 29 28 28 29 30 31
28 28 27 27 27 28 29 30 30 29 29 29 28 28 27 25 26 28 27 24 24 28 27 24 22 22 22 21 21 23 23 23 23 24 23 24 24 27 28 28 29 28 29 29
31 32 31 31 30 29 29 31 32 31 30 30 30 30 29 27 26 26 26 22 28 25 25 23 21 21 22 21 22 22 22 22 22 22 23 24 26 27 27 27 27 27 27 27
34 34 33 32 33 33 33 34 33 33 31 30 30 30 29 27 27 25 22 27 29 28 27 27 25 23 22 22 23 24 24 23 25 23 24 24 25 25 25 26 26 25 24 25
34 34 35 36 37 35 33 34 36 35 38 34 34 33 32 29 27 30 29 27 27 27 28 28 24 20 23 25 25 25 25 25 24 24 24 23 24 25 25 24 24 24 24 24
34 36 38 34 34 33 36 35 34 35 35 34 34 33 34 32 30 28 29 29 26 26 28 23 20 19 25 27 25 25 23 23 23 22 22 23 23 24 24 23 23 23 24 24
35 33 34 37 34 34 32 31 31 30 32 30 31 34 32 31 30 29 29 27 28 26 27 25 22 23 23 22 21 21 21 21 21 22 22 22 22 23 23 24 24 24 25 25
34 31 32 31 33 32 32 32 31 29 30 33 31 30 31 29 29 27 26 26 27 26 24 25 23 22 21 21 21 22 22 22 22 22 23 23 23 23 24 24 24 24 25 26

GFSNGP_con_lsi_111.txt.gz
Lid_Strength_Index
17 15 15 15 15 15 15 14 16 15 15 14 13 13 12 13 12 11 11 11 10 10 11 11 11 11 11 10 11 11 11 10 11 11 12 13 14 14 14 14 14 13 14 14
17 15 15 16 14 14 13 13 14 13 15 14 13 13 13 12 11 12 12 11 10 10 10 10 11 11 11 11 11 11 11 11 13 13 13 14 15 15 15 15 14 14 14 14
17 16 16 18 15 14 14 13 13 15 13 13 13 13 12 12 12 12 12 10 10 9 9 9 10 10 10 10 12 12 12 14 14 14 14 15 15 15 15 15 14 14 15 15
23 20 19 15 14 13 13 12 12 12 14 13 12 12 12 11 11 11 11 10 9 8 9 9 10 10 10 12 13 14 14 14 14 14 14 15 15 16 16 15 15 16 16 15
19 23 17 15 14 16 16 14 13 13 13 13 13 14 12 12 11 10 10 10 9 9 9 9 10 10 11 13 13 13 13 14 14 14 14 14 15 16 15 16 16 16 16 16
23 20 21 14 13 13 12 15 10 12 13 13 13 15 12 11 11 11 11 11 10 10 9 9 10 11 12 13 13 13 13 13 14 14 15 15 15 15 16 15 16 16 16 16
19 17 19 15 14 12 16 15 15 13 13 13 12 10 12 12 11 11 12 11 11 11 10 10 12 12 12 12 13 12 13 13 14 14 14 14 15 16 16 16 16 17 17 17
23 18 19 15 14 13 12 13 12 13 12 12 12 12 12 12 12 12 13 13 13 13 12 12 13 13 13 13 13 14 14 14 14 15 15 15 15 16 16 16 17 18 18 19
15 15 13 14 13 13 13 13 13 12 12 12 12 13 13 13 13 13 14 13 14 15 14 13 15 13 14 14 14 15 15 15 15 15 15 15 16 17 17 17 17 18 18 18
14 15 14 14 14 13 13 14 13 13 13 13 13 13 13 13 13 13 15 16 17 16 16 16 17 15 15 15 15 15 15 15 16 16 16 16 16 16 17 17 18 18 18 18
17 14 14 14 13 13 13 13 13 13 13 13 13 13 13 14 15 16 17 17 17 17 17 17 18 18 18 16 15 15 15 16 16 16 16 17 16 17 17 16 16 17 17 17
17 13 13 13 13 13 13 14 14 14 14 14 14 14 15 16 17 17 17 18 18 18 19 18 19 20 19 18 16 16 17 17 16 16 16 17 18 18 16 16 15 15 15 15
11 11 12 13 13 13 13 14 14 14 14 15 16 15 17 17 18 18 19 19 19 19 19 20 19 19 19 19 17 17 16 17 16 17 17 17 18 18 19 17 15 15 15 15
10 10 11 11 12 13 13 14 15 17 17 17 17 18 19 18 19 18 19 20 20 21 21 21 20 18 19 18 17 17 18 17 16 16 17 17 17 17 17 18 19 18 14 14
13 14 12 13 14 15 15 15 15 17 17 18 19 20 19 19 19 20 21 21 21 23 22 22 22 20 21 20 19 17 16 16 16 16 16 16 17 17 17 18 17 18 20 15
16 16 15 16 17 18 17 17 17 18 19 20 20 21 21 22 23 24 23 24 22 21 23 23 22 21 23 22 20 20 18 18 17 17 17 17 17 17 18 17 17 19 20 18
17 17 18 19 19 20 21 21 21 21 21 23 24 23 24 25 26 24 24 25 27 26 26 27 23 23 25 23 21 20 19 18 17 16 17 16 17 17 18 17 17 18 19 19
21 21 22 21 21 21 23 26 26 27 28 27 26 27 27 26 28 27 26 26 25 23 24 24 25 26 26 26 24 22 21 19 17 17 17 17 17 17 17 17 17 18 19 21
26 26 25 26 26 26 27 28 29 28 29 30 29 29 32 32 33 32 30 29 26 26 24 26 23 25 28 28 25 23 22 22 20 20 19 20 21 21 20 19 19 19 20 21
29 29 28 28 28 29 30 31 31 30 32 33 34 32 31 30 31 30 30 30 29 28 28 28 28 28 28 27 22 26 24 24 21 22 21 21 21 21 21 21 22 22 22 21
32 31 31 31 30 31 33 33 33 33 33 35 36 37 37 34 33 33 32 30 30 29 29 28 28 27 27 26 25 25 25 24 21 20 20 21 21 21 21 21 22 21 23 21
33 33 32 32 33 33 34 35 35 34 34 35 36 36 34 32 34 32 35 31 30 29 29 29 28 28 27 25 27 26 24 23 22 21 20 20 20 20 21 21 21 21 21 21
33 33 32 33 34 35 35 36 35 36 34 35 35 35 35 33 32 33 30 30 29 29 27 29 27 24 23 27 29 28 26 24 22 22 21 20 20 19 19 20 20 20 21 21
35 34 34 35 35 35 34 35 37 37 39 37 37 37 37 34 32 35 33 30 29 28 28 28 25 21 23 29 30 29 27 27 25 25 24 22 22 21 20 20 20 21 21 21
38 38 38 37 37 35 37 34 35 35 35 34 34 33 37 35 33 32 31 30 28 28 28 26 22 22 29 32 31 30 29 27 27 27 25 23 22 22 21 21 21 21 21 21
39 38 38 38 36 36 36 36 35 34 37 35 34 34 33 33 33 32 31 29 30 28 29 28 28 29 30 30 30 29 27 26 26 25 24 24 24 23 22 21 21 21 21 21
37 34 37 35 37 37 38 38 38 34 35 38 35 31 34 32 32 30 29 29 29 29 30 30 28 27 28 28 27 27 26 26 23 24 25 24 23 22 21 21 21 21 20 21

GFSNGP_con_lsi_114.txt.gz
Lid_Strength_Index
13 13 12 12 12 12 12 12 14 13 13 11 10 9 8 8 9 9 8 8 8 8 8 9 9 9 9 7 7 7 7 6 6 7 7 9 10 11 12 12 13 13 14 13
15 13 12 13 12 12 12 12 12 12 12 9 8 8 8 8 8 9 8 8 8 8 8 9 9 9 9 9 8 8 8 8 9 10 11 12 12 13 14 14 14 15 14 13
15 14 13 15 14 13 12 11 11 13 11 8 9 9 9 8 8 9 9 8 8 8 8 8 8 9 9 9 9 9 9 10 11 11 12 12 13 14 15 15 14 15 13 13
16 14 18 13 10 10 11 10 10 10 10 9 8 8 7 8 8 8 8 8 8 7 7 7 7 8 7 8 9 10 10 12 12 12 12 13 13 14 15 15 15 14 14 13
16 16 13 13 13 12 12 12 10 10 9 8 9 9 8 8 8 8 7 8 8 7 7 7 7 8 9 10 10 10 10 11 12 12 13 14 14 14 14 15 14 14 14 13
17 17 18 12 11 10 9 14 8 9 9 9 10 11 9 8 9 9 8 8 8 8 7 7 8 9 10 11 11 11 10 11 12 12 12 13 13 14 14 14 14 14 14 14
15 15 14 11 11 9 14 12 9 9 8 9 10 8 8 9 9 10 9 9 9 8 8 8 9 10 11 11 11 10 11 11 12 12 12 12 13 14 14 14 14 14 14 14
14 15 17 11 12 12 9 9 9 10 10 9 9 10 10 10 10 10 10 10 10 10 10 10 10 10 11 11 11 12 12 12 13 13 12 13 13 14 13 14 14 15 15 15
12 12 11 11 10 10 10 10 9 9 9 9 10 10 10 11 11 11 12 12 13 13 12 11 13 11 12 11 12 13 13 13 14 14 13 13 14 14 14 14 14 15 15 15
12 12 12 11 12 11 11 11 11 10 10 10 11 11 12 11 12 12 13 13 14 13 13 13 13 13 12 12 13 13 13 13 13 14 14 14 13 14 14 14 14 15 15 15
13 13 12 12 11 11 12 11 11 12 12 11 11 12 12 13 13 13 14 14 14 14 14 14 14 13 13 13 13 13 13 13 13 13 13 13 13 13 13 13 13 14 14 15
12 11 10 12 11 11 11 12 12 12 13 13 12 12 12 14 14 14 14 15 14 14 14 14 14 15 14 15 13 13 13 14 13 13 14 13 14 14 13 13 13 13 13 13
11 10 11 11 11 11 12 12 12 13 13 14 15 14 14 14 15 16 15 16 16 16 16 15 15 15 15 15 15 14 13 14 14 14 14 14 14 14 16 16 14 13 14 13
10 10 12 11 13 12 13 14 15 16 16 16 16 16 16 16 17 17 18 18 17 17 17 17 17 16 16 15 14 15 14 14 13 14 14 14 14 14 14 15 16 16 14 14
14 12 10 13 13 15 14 14 15 16 16 17 17 18 17 17 18 18 19 19 18 18 19 20 19 18 18 18 16 14 13 13 14 13 13 14 14 14 14 15 15 15 15 14
15 15 14 15 16 16 16 16 16 18 18 19 19 20 20 19 20 20 20 21 19 20 22 21 20 21 21 20 18 15 14 16 14 13 14 14 14 14 15 15 15 15 15 14
15 16 17 18 18 19 20 20 20 20 21 22 23 22 22 21 21 22 22 23 22 22 22 23 23 22 23 22 20 16 15 14 15 14 14 14 14 14 14 14 14 14 14 13
22 21 21 20 19 21 23 24 25 25 26 26 25 24 24 25 25 25 25 25 22 23 24 26 26 24 23 23 22 19 16 15 15 15 14 14 14 14 14 14 14 14 13 14
26 25 25 26 25 25 26 27 27 28 29 29 27 27 28 29 28 28 27 26 25 23 25 27 24 25 23 24 21 19 18 17 16 16 15 15 15 15 15 14 14 14 14 17
29 28 28 28 29 28 29 30 29 30 32 31 30 29 28 29 31 30 27 26 28 27 28 27 27 25 25 24 24 20 20 19 19 18 17 17 17 17 17 17 16 16 17 18
31 30 30 30 30 31 32 33 32 31 32 32 31 32 32 30 30 30 24 21 26 28 28 27 26 25 25 24 23 21 21 21 20 19 18 18 18 17 17 17 17 18 18 18
32 32 32 32 32 31 33 33 33 32 31 32 32 32 31 28 29 28 30 27 27 28 27 26 25 26 24 24 23 22 22 22 21 20 19 19 18 18 17 17 18 18 18 18
32 32 31 32 33 32 32 32 33 32 32 32 32 31 29 29 28 27 23 25 26 27 25 24 25 23 21 22 22 22 22 23 22 21 21 20 19 19 18 18 17 18 18 18
32 31 31 32 32 30 29 30 32 31 33 33 32 32 30 27 26 27 26 28 29 28 26 25 24 21 23 23 23 23 23 23 23 23 22 22 21 20 20 19 19 18 18 18
34 34 33 32 30 29 32 31 32 30 30 29 29 29 30 29 29 26 28 28 27 27 25 25 23 23 24 23 23 23 23 23 23 23 22 22 21 21 21 20 20 20 19 19
33 32 32 34 33 31 31 32 31 30 30 29 28 27 27 27 27 28 27 27 26 26 25 24 24 24 23 23 22 22 22 22 22 21 21 21 20 20 20 19 19 19 18 18
33 33 31 30 30 30 31 31 31 29 29 30 30 28 27 27 26 27 27 25 25 25 24 24 24 23 23 22 22 22 22 21 21 21 20 20 20 19 19 19 19 18 18 18

GFSNGP_con_lsi_117.txt.gz
Lid_Strength_Index
12 12 12 13 13 11 12 12 13 12 12 10 8 8 7 7 7 7 8 7 7 7 6 6 7 7 7 6 6 6 7 7 5 4 4 5 7 8 9 9 10 10 11 14
15 13 12 13 12 11 12 12 11 11 12 8 8 7 8 7 7 7 7 7 7 6 6 6 6 7 7 7 7 7 7 7 7 8 8 9 10 11 12 12 12 12 12 13
16 13 14 15 14 12 12 11 11 13 11 8 9 9 8 7 7 7 7 7 7 7 6 6 6 6 7 7 7 8 8 9 11 11 11 11 12 12 13 12 12 12 13 14
16 14 18 13 9 10 11 10 9 10 9 8 8 7 7 6 7 7 7 7 7 6 6 5 5 6 6 6 7 9 9 10 11 11 12 12 13 13 13 13 13 13 14 14
17 16 13 12 11 11 12 12 9 10 9 8 7 8 8 7 6 6 6 6 7 7 6 6 6 6 7 9 9 10 9 10 11 11 12 12 12 12 12 13 13 14 14 14
15 16 18 13 10 9 9 14 8 8 8 8 7 11 9 6 6 7 7 7 7 7 7 7 6 7 9 10 10 10 10 10 10 11 11 12 12 12 12 13 14 15 15 14
15 16 14 11 10 9 14 13 9 8 7 7 9 8 7 8 8 8 8 8 8 8 8 9 9 10 10 10 10 10 11 11 12 12 13 12 12 13 13 14 14 14 15 14
14 16 17 9 10 12 9 9 9 9 8 9 7 9 8 9 9 9 9 9 10 9 10 11 11 11 11 11 10 12 12 13 13 13 13 13 13 13 13 13 14 14 14 14
12 12 10 9 9 8 8 8 9 8 8 8 9 9 9 10 10 10 11 12 12 12 12 12 13 12 12 12 13 13 13 14 13 13 13 13 13 14 14 14 14 14 15 15
11 10 10 10 10 10 9 9 9 9 9 8 9 10 11 11 12 12 13 13 13 13 13 14 14 14 14 13 14 13 14 13 13 13 13 13 13 13 13 13 14 14 14 14
11 12 11 11 10 9 10 10 11 11 10 10 10 11 11 13 13 13 13 13 14 14 14 14 14 14 14 14 14 14 14 14 13 13 13 13 13 12 13 12 12 13 13 13
12 10 9 9 10 10 11 11 11 12 12 12 11 12 12 14 14 14 14 14 14 15 15 14 14 14 15 14 14 14 13 14 13 13 13 13 13 13 12 12 12 11 11 12
9 9 9 10 10 10 11 11 12 12 12 13 13 12 13 14 15 15 15 15 16 16 16 16 15 16 16 15 15 15 14 13 13 14 13 13 14 13 14 14 13 13 12 11
11 11 12 11 12 12 12 14 15 15 16 15 15 15 15 16 16 17 18 18 16 18 19 18 18 18 18 17 16 16 14 14 13 13 13 13 13 14 14 14 15 14 13 12
14 11 11 12 13 14 14 15 16 16 16 17 17 17 16 17 18 19 20 20 18 20 21 21 21 21 21 20 18 16 14 13 13 13 13 13 14 14 14 14 14 14 14 13
16 14 14 15 15 15 15 15 16 17 18 19 19 19 18 18 19 20 21 21 18 21 23 23 23 23 22 21 19 15 14 14 15 13 13 13 13 14 14 14 14 14 14 14
15 16 16 17 18 19 20 19 19 19 20 21 22 21 21 20 21 22 23 23 22 24 24 25 26 24 24 23 21 17 16 15 14 14 14 13 14 14 14 14 14 14 14 13
22 21 20 18 19 20 22 23 23 24 25 25 24 23 24 24 24 24 25 23 23 24 26 27 27 25 25 24 22 19 17 16 15 15 15 14 14 14 14 14 14 14 14 13
26 25 25 25 23 23 24 26 26 27 27 27 25 26 26 27 27 26 25 25 25 23 26 27 25 25 25 25 23 20 19 19 18 17 17 17 17 16 16 15 15 14 14 14
28 27 27 28 28 27 28 28 27 28 29 28 27 27 26 28 29 29 26 27 28 28 29 28 28 25 26 25 24 21 20 20 20 19 19 18 18 18 17 17 17 17 16 15
30 29 29 28 29 30 31 31 30 30 30 30 29 30 30 29 29 30 26 21 28 29 28 27 26 26 25 24 24 22 22 22 21 21 20 20 19 18 17 17 17 17 17 16
31 31 30 30 30 30 32 31 31 31 30 30 31 31 30 27 29 28 30 27 27 28 27 25 25 26 25 24 23 23 23 23 22 22 21 21 20 19 19 18 18 18 17 17
31 31 30 31 32 31 31 31 32 31 31 31 31 31 29 28 27 26 23 27 27 27 27 25 25 24 23 23 22 22 22 23 22 22 22 22 21 21 21 20 19 19 19 18
31 30 31 30 31 30 28 29 31 30 31 31 30 31 30 27 25 25 25 26 27 27 26 25 24 21 24 23 23 23 23 23 23 23 22 23 22 22 21 21 21 20 20 20
31 31 31 30 28 27 29 29 29 27 27 27 27 27 28 27 28 26 27 27 26 26 25 24 22 23 24 24 23 24 23 23 23 23 23 22 22 22 22 21 21 21 20 20
30 30 30 30 30 30 29 29 29 28 28 27 27 25 26 25 26 26 26 26 26 26 25 24 24 25 24 23 23 23 23 22 22 22 23 22 22 21 21 21 21 20 20 19
30 31 29 28 27 28 29 29 30 28 28 28 28 26 26 26 26 26 26 25 24 24 24 24 23 23 23 23 23 23 22 22 22 22 22 21 21 21 21 21 21 20 20 20